Peyton, CO

7:47 PM MST on January 19, 2017 (GMT -0700)
Meadow Lake

Weather History for KFLY - December, 2012

Change the Weather History Date:

Thursday, December 27, 2012

  Actual Average (KCOS) Record (KCOS)
Temperature  
Mean Temperature 24 °F -  
Max Temperature 33 °F 39 °F 65 °F (1955)
Min Temperature 14 °F 17 °F -8 °F (1894)
Degree Days  
Heating Degree Days 41    
Moisture  
Dew Point 13 °F    
Average Humidity 74    
Maximum Humidity 93    
Minimum Humidity 45    
Precipitation  
Precipitation 0.00 in - - ()
Sea Level Pressure  
Sea Level Pressure 29.65 in    
Wind  
Wind Speed 8 mph (NNE)    
Max Wind Speed 17 mph    
Max Gust Speed 22 mph    
Visibility 8 miles    
Events Snow    
Averages and records for this station are not official NWS values.
T = Trace of Precipitation, MM = Missing Value Source: NWS Daily Summary

Daily Weather History Graph

Daily Weather History Graph

Search for Another Location

Airport or City:

Trip Planner

Search our weather history database for the weather conditions in past years. The results will help you decide how hot, cold, wet, or windy it might be!

Date:

Astronomy

Dec. 27, 2012 Rise Set
Actual Time 7:16 AM MST 4:43 PM MST
Civil Twilight 6:46 AM MST 5:13 PM MST
Nautical Twilight 6:12 AM MST 5:46 PM MST
Astronomical Twilight 5:40 AM MST 6:19 PM MST
Moon 4:28 PM MST (12/27) 6:29 AM MST (12/27)
Length of Visible Light 10h 27m
Length of Day
9h 27m
Full, 100% of the Moon is Illuminated
Dec 27
Full
Dec 28
Full
Jan 4
Last Quarter
Jan 11
New
Jan 18
First Quarter

Hourly Weather History & Observations

Time (MST) Temp. Windchill Dew Point Humidity Pressure Visibility Wind Dir Wind Speed Gust Speed Precip Events Conditions
12:14 AM 18.5 °F - 8.4 °F 65% 29.52 in 10.0 mi Calm Calm - N/A   Clear
12:34 AM 21.6 °F 12.1 °F 7.0 °F 54% 29.52 in 10.0 mi ENE 8.1 mph - N/A   Clear
12:54 AM 25.2 °F 17.3 °F 7.9 °F 48% 29.52 in 10.0 mi NNE 6.9 mph - N/A   Clear
1:14 AM 22.1 °F 13.7 °F 7.7 °F 54% 29.52 in 10.0 mi NNE 6.9 mph - N/A   Clear
1:34 AM 21.0 °F 9.9 °F 8.8 °F 59% 29.52 in 10.0 mi North 10.4 mph - N/A   Clear
1:54 AM 19.6 °F 6.8 °F 8.6 °F 62% 29.54 in 10.0 mi NNW 12.7 mph - N/A   Clear
2:14 AM 19.0 °F 7.5 °F 8.6 °F 64% 29.54 in 10.0 mi NNW 10.4 mph - N/A   Clear
2:54 AM 17.4 °F 1.9 °F 9.1 °F 70% 29.54 in 10.0 mi North 17.3 mph - N/A   Clear
3:14 AM 16.3 °F 2.1 °F 8.8 °F 72% 29.54 in 10.0 mi North 13.8 mph 19.6 mph N/A   Clear
3:34 AM 17.8 °F 3.4 °F 9.3 °F 69% 29.54 in 10.0 mi North 15.0 mph 21.9 mph N/A   Clear
3:54 AM 18.0 °F 3.6 °F 10.2 °F 72% 29.54 in 10.0 mi North 15.0 mph - N/A   Clear
4:14 AM 18.3 °F 3.6 °F 9.9 °F 70% 29.55 in 10.0 mi North 16.1 mph 20.7 mph N/A   Clear
4:34 AM 18.5 °F 4.9 °F 10.4 °F 71% 29.55 in 10.0 mi North 13.8 mph 19.6 mph N/A   Clear
4:54 AM 19.2 °F 6.4 °F 10.9 °F 70% 29.56 in 10.0 mi North 12.7 mph - N/A   Clear
5:14 AM 19.6 °F 8.1 °F 11.3 °F 70% 29.57 in 10.0 mi NNW 10.4 mph - N/A   Clear
5:34 AM 19.8 °F 8.3 °F 12.0 °F 72% 29.57 in 10.0 mi North 10.4 mph - N/A   Clear
5:54 AM 20.3 °F 10.6 °F 13.3 °F 74% 29.58 in 10.0 mi North 8.1 mph - N/A   Clear
6:14 AM 18.1 °F 8.9 °F 11.7 °F 76% 29.58 in 10.0 mi NNW 6.9 mph - N/A   Clear
6:34 AM 19.2 °F 10.2 °F 13.6 °F 79% 29.59 in 10.0 mi NNW 6.9 mph - N/A   Clear
6:54 AM 19.2 °F 9.3 °F 13.8 °F 80% 29.60 in 10.0 mi NNW 8.1 mph - N/A   Clear
7:14 AM 19.4 °F 10.4 °F 14.5 °F 81% 29.60 in 10.0 mi NNW 6.9 mph - N/A   Clear
7:34 AM 19.9 °F 10.1 °F 14.2 °F 78% 29.61 in 10.0 mi North 8.1 mph - N/A   Clear
7:54 AM 21.0 °F 11.4 °F 14.5 °F 76% 29.62 in 10.0 mi North 8.1 mph - N/A   Scattered Clouds
8:14 AM 23.2 °F 15.0 °F 15.4 °F 72% 29.62 in 10.0 mi North 6.9 mph - N/A   Clear
8:34 AM 25.5 °F 18.7 °F 16.0 °F 67% 29.62 in 10.0 mi North 5.8 mph - N/A   Scattered Clouds
8:54 AM 27.3 °F 19.9 °F 16.7 °F 64% 29.63 in 10.0 mi North 6.9 mph - N/A   Scattered Clouds
9:34 AM 31.3 °F - 15.3 °F 52% 29.65 in 10.0 mi Calm Calm - N/A   Mostly Cloudy
9:54 AM 30.9 °F 23.5 °F 15.1 °F 52% 29.65 in 10.0 mi ESE 8.1 mph - N/A   Mostly Cloudy
10:14 AM 31.6 °F 25.1 °F 14.0 °F 48% 29.66 in 10.0 mi South 6.9 mph - N/A   Scattered Clouds
10:34 AM 32.9 °F 26.7 °F 13.8 °F 45% 29.65 in 10.0 mi South 6.9 mph - N/A   Clear
10:54 AM 32.7 °F 25.7 °F 16.5 °F 51% 29.65 in 10.0 mi South 8.1 mph - N/A   Clear
11:06 AM 32.5 °F 23.7 °F 18.0 °F 55% 29.64 in 10.0 mi SE 11.5 mph 17.3 mph N/A   Clear
12:54 PM 33.1 °F 23.9 °F 20.3 °F 59% 29.62 in 10.0 mi SE 12.7 mph 19.6 mph N/A   Overcast
1:34 PM 25.7 °F 17.1 °F 18.3 °F 74% 29.62 in 10.0 mi ENE 8.1 mph - N/A   Overcast
1:54 PM 26.2 °F 17.8 °F 18.9 °F 74% 29.63 in 10.0 mi East 8.1 mph - N/A   Mostly Cloudy
2:14 PM 24.4 °F 14.2 °F 18.1 °F 77% 29.64 in 10.0 mi ENE 10.4 mph - N/A   Mostly Cloudy
2:34 PM 22.8 °F 12.9 °F 17.1 °F 79% 29.65 in 10.0 mi ENE 9.2 mph - N/A   Overcast
2:54 PM 22.5 °F 12.4 °F 16.5 °F 78% 29.66 in 10.0 mi ENE 9.2 mph - N/A   Overcast
3:14 PM 21.6 °F 11.3 °F 16.2 °F 80% 29.66 in 4.0 mi ENE 9.2 mph - N/A Snow Light Snow
3:34 PM 20.7 °F 10.2 °F 15.8 °F 81% 29.67 in 7.0 mi ENE 9.2 mph - N/A Snow Light Snow
3:54 PM 19.8 °F 10.8 °F 15.1 °F 82% 29.68 in 7.0 mi NE 6.9 mph - N/A Snow Light Snow
4:14 PM 19.2 °F 9.3 °F 15.1 °F 84% 29.68 in 5.0 mi NE 8.1 mph - N/A Snow Light Snow
4:34 PM 18.3 °F 9.1 °F 14.0 °F 83% 29.70 in 7.0 mi NE 6.9 mph - N/A Snow Light Snow
5:14 PM 17.6 °F 10.7 °F 13.8 °F 85% 29.71 in 10.0 mi NE 4.6 mph - N/A   Overcast
5:34 PM 17.6 °F 9.3 °F 13.8 °F 85% 29.72 in 10.0 mi NE 5.8 mph - N/A   Overcast
5:54 PM 17.6 °F 9.3 °F 13.6 °F 84% 29.73 in 10.0 mi NNE 5.8 mph - N/A   Overcast
6:14 PM 17.6 °F 8.2 °F 14.0 °F 86% 29.74 in 10.0 mi NNE 6.9 mph - N/A   Overcast
6:34 PM 17.2 °F 8.9 °F 13.3 °F 84% 29.74 in 10.0 mi NNE 5.8 mph - N/A   Overcast
6:54 PM 17.6 °F 5.7 °F 13.5 °F 84% 29.75 in 10.0 mi NNE 10.4 mph - N/A   Overcast
7:14 PM 17.4 °F 8.0 °F 13.6 °F 85% 29.76 in 10.0 mi North 6.9 mph - N/A   Overcast
7:34 PM 17.4 °F 9.1 °F 13.1 °F 83% 29.76 in 10.0 mi NNE 5.8 mph - N/A   Overcast
7:54 PM 17.6 °F 9.3 °F 13.5 °F 84% 29.76 in 10.0 mi North 5.8 mph - N/A   Overcast
8:14 PM 16.9 °F 5.5 °F 13.6 °F 87% 29.77 in 1.0 mi North 9.2 mph - N/A Snow Light Snow
8:34 PM 16.7 °F 7.2 °F 13.5 °F 87% 29.77 in 1.2 mi North 6.9 mph - N/A Snow Light Snow
8:54 PM 16.7 °F 8.3 °F 13.1 °F 86% 29.77 in 2.0 mi North 5.8 mph - N/A Snow Light Snow
9:14 PM 16.7 °F 8.3 °F 13.1 °F 86% 29.78 in 4.0 mi North 5.8 mph - N/A Snow Light Snow
9:34 PM 16.7 °F 8.3 °F 12.6 °F 84% 29.78 in 7.0 mi North 5.8 mph - N/A Snow Light Snow
9:54 PM 16.7 °F 8.3 °F 13.1 °F 86% 29.79 in 4.0 mi North 5.8 mph - N/A Snow Light Snow
10:34 PM 17.1 °F - 13.1 °F 84% 29.80 in 1.2 mi Calm Calm - N/A Snow Light Snow
10:54 PM 17.1 °F 8.7 °F 14.4 °F 89% 29.81 in 1.0 mi SSW 5.8 mph - N/A Snow Light Snow
11:14 PM 15.8 °F 6.1 °F 14.0 °F 93% 29.81 in 1.8 mi SW 6.9 mph - N/A Snow Light Snow
11:34 PM 15.3 °F 5.4 °F 13.6 °F 93% 29.81 in 2.5 mi WSW 6.9 mph - N/A Snow Light Snow
11:54 PM 14.9 °F 6.1 °F 13.1 °F 93% 29.81 in 3.0 mi WSW 5.8 mph - N/A Snow Light Snow